| time (UTC) | temp F | wind direction | speed MPH | gust MPH | rain 1hr in | rain 24hr in | rain mn in | humidity % | barometer mb |
| 20260506134016 | 64 | 304 | 14.0 | 18.0 | 0.00 | 0.21 | 0.06 | 65 | 1011.4 |
| 20260506133016 | 64 | 298 | 7.0 | 13.0 | 0.00 | 0.21 | 0.06 | 65 | 1011.5 |
| 20260506132016 | 64 | 306 | 7.0 | 13.0 | 0.00 | 0.21 | 0.06 | 67 | 1011.6 |
| 20260506131016 | 63 | 324 | 8.0 | 14.0 | 0.00 | 0.21 | 0.06 | 70 | 1011.5 |
| 20260506130036 | 64 | 329 | 9.0 | 15.0 | 0.00 | 0.21 | 0.06 | 69 | 1011.6 |
| 20260506125016 | 63 | 282 | 9.0 | 12.0 | 0.00 | 0.21 | 0.06 | 69 | 1011.6 |
| 20260506124015 | 62 | 313 | 6.0 | 18.0 | 0.00 | 0.21 | 0.06 | 71 | 1011.6 |
| 20260506123016 | 61 | 338 | 11.0 | 15.0 | 0.00 | 0.21 | 0.06 | 72 | 1011.7 |
| 20260506122015 | 61 | 337 | 12.0 | 16.0 | 0.00 | 0.21 | 0.06 | 72 | 1011.8 |
| 20260506121016 | 62 | 328 | 9.0 | 13.0 | 0.00 | 0.21 | 0.06 | 72 | 1011.8 |
| 20260506120036 | 62 | 338 | 8.0 | 13.0 | 0.00 | 0.21 | 0.06 | 71 | 1011.9 |
| 20260506115015 | 62 | 323 | 10.0 | 17.0 | 0.00 | 0.21 | 0.06 | 70 | |
| 20260506114016 | 61 | 291 | 9.0 | 15.0 | 0.00 | 0.21 | 0.06 | 72 | |
| 20260506113016 | 60 | 292 | 11.0 | 17.0 | 0.00 | 0.21 | 0.06 | 71 | |
| 20260506112015 | 60 | 272 | 9.0 | 15.0 | 0.00 | 0.21 | 0.06 | 72 | |
| 20260506111015 | 60 | 288 | 10.0 | 16.0 | 0.00 | 0.21 | 0.06 | 71 | |
| 20260506110056 | 59 | 309 | 9.0 | 12.0 | 0.00 | 0.21 | 0.06 | 72 | |
| 20260506105015 | 59 | 293 | 9.0 | 15.0 | 0.00 | 0.21 | 0.06 | 73 | |
| 20260506104015 | 60 | 288 | 13.0 | 23.0 | 0.00 | 0.21 | 0.06 | 72 | |
| 20260506103015 | 59 | 298 | 8.0 | 13.0 | 0.00 | 0.21 | 0.06 | 73 | |
| 20260506102015 | 60 | 287 | 10.0 | 18.0 | 0.00 | 0.21 | 0.06 | 71 | |
| 20260506101015 | 60 | 287 | 12.0 | 19.0 | 0.00 | 0.21 | 0.06 | 73 | |
| 20260506100015 | 59 | 281 | 12.0 | 18.0 | 0.00 | 0.21 | 0.06 | 73 | |
| 20260506095056 | 59 | 270 | 13.0 | 18.0 | 0.00 | 0.21 | 0.06 | 72 | |
| 20260506094015 | 59 | 283 | 11.0 | 17.0 | 0.00 | 0.21 | 0.06 | 72 | |
| 20260506093015 | 59 | 272 | 10.0 | 20.0 | 0.00 | 0.21 | 0.06 | 72 | |
| 20260506092056 | 59 | 277 | 12.0 | 17.0 | 0.00 | 0.21 | 0.06 | 74 | |
| 20260506091015 | 58 | 299 | 10.0 | 17.0 | 0.00 | 0.21 | 0.06 | 73 | |
| 20260506090035 | 57 | 280 | 10.0 | 14.0 | 0.00 | 0.21 | 0.06 | 76 | |
| 20260506085015 | 57 | 275 | 10.0 | 14.0 | 0.00 | 0.21 | 0.06 | 77 | |
| 20260506084015 | 57 | 287 | 11.0 | 15.0 | 0.00 | 0.21 | 0.06 | 77 | |
| 20260506083015 | 57 | 296 | 10.0 | 15.0 | 0.00 | 0.21 | 0.06 | 78 | |
| 20260506082015 | 57 | 289 | 10.0 | 14.0 | 0.00 | 0.21 | 0.06 | 78 | |
| 20260506081015 | 56 | 284 | 11.0 | 15.0 | 0.00 | 0.21 | 0.06 | 79 | |
| 20260506073017 | 55 | 283 | 12.0 | 17.0 | 0.00 | 0.21 | 0.06 | 82 | |
| 20260506072017 | 54 | 284 | 12.0 | 19.0 | 0.00 | 0.21 | 0.06 | 83 | |
| 20260506071037 | 54 | 286 | 9.0 | 14.0 | 0.00 | 0.21 | 0.06 | 85 | |
| 20260506062017 | 51 | 306 | 7.0 | 11.0 | 0.00 | 0.21 | 0.06 | 90 | |
| 20260506061017 | 51 | 304 | 5.0 | 8.0 | 0.00 | 0.21 | 0.06 | 91 | |
| 20260506051016 | 50 | 309 | 3.0 | 4.0 | 0.00 | 0.21 | 0.06 | 91 | |
| 20260506045017 | 49 | 312 | 3.0 | 7.0 | 0.00 | 0.21 | 0.06 | 91 | 1011.8 |
| 20260506044016 | 49 | 317 | 4.0 | 8.0 | 0.00 | 0.21 | 0.06 | 92 | 1011.7 |
| 20260506043037 | 50 | 317 | 4.0 | 7.0 | 0.00 | 0.21 | 0.06 | 92 | 1011.7 |
| 20260506042016 | 50 | 315 | 5.0 | 6.0 | 0.00 | 0.21 | 0.06 | 92 | 1011.7 |
| 20260506041016 | 50 | 315 | 5.0 | 8.0 | 0.00 | 0.21 | 0.06 | 92 | 1011.7 |
| 20260506040017 | 50 | 307 | 5.0 | 8.0 | 0.00 | 0.21 | 0.06 | 92 | 1011.6 |
| 20260506035016 | 50 | 316 | 5.0 | 9.0 | 0.00 | 0.21 | 0.06 | 92 | 1011.7 |
| 20260506034016 | 50 | 281 | 3.0 | 4.0 | 0.00 | 0.21 | 0.06 | 92 | 1011.7 |
| 20260506033016 | 50 | 281 | 3.0 | 4.0 | 0.00 | 0.21 | 0.06 | 92 | 1011.7 |
| 20260506032016 | 50 | 281 | 2.0 | 4.0 | 0.00 | 0.21 | 0.06 | 92 | 1011.9 |
| 20260506031016 | 50 | 281 | 2.0 | 3.0 | 0.00 | 0.21 | 0.06 | 92 | 1011.8 |
| 20260506030016 | 50 | 281 | 3.0 | 4.0 | 0.00 | 0.21 | 0.06 | 92 | 1011.8 |
| 20260506025016 | 50 | 281 | 3.0 | 4.0 | 0.00 | 0.21 | 0.06 | 91 | 1011.9 |
| 20260506024016 | 51 | 281 | 3.0 | 4.0 | 0.00 | 0.21 | 0.06 | 91 | 1011.8 |
| 20260506023016 | 51 | 281 | 3.0 | 4.0 | 0.00 | 0.21 | 0.06 | 91 | 1011.8 |
| 20260506022016 | 51 | 281 | 3.0 | 4.0 | 0.00 | 0.21 | 0.06 | 91 | 1011.8 |
| 20260506021016 | 51 | 281 | 3.0 | 6.0 | 0.00 | 0.21 | 0.06 | 91 | 1011.8 |
| 20260506020016 | 51 | 281 | 4.0 | 7.0 | 0.00 | 0.21 | 0.06 | 91 | 1011.8 |
| 20260506015016 | 52 | 281 | 6.0 | 7.0 | 0.00 | 0.21 | 0.06 | 91 | 1011.8 |
| 20260506014016 | 52 | 281 | 5.0 | 7.0 | 0.00 | 0.21 | 0.06 | 91 | 1011.9 |
| 20260506013036 | 52 | 281 | 5.0 | 9.0 | 0.00 | 0.21 | 0.06 | 91 | 1011.9 |
| 20260506012016 | 52 | 282 | 6.0 | 8.0 | 0.00 | 0.21 | 0.06 | 91 | 1011.8 |
| 20260506011016 | 52 | 286 | 7.0 | 9.0 | 0.00 | 0.21 | 0.06 | 91 | 1011.9 |
| 20260506010016 | 52 | 284 | 5.0 | 8.0 | 0.00 | 0.21 | 0.06 | 91 | 1011.9 |
| 20260506005016 | 52 | 286 | 4.0 | 6.0 | 0.06 | 0.21 | 0.06 | 91 | 1011.9 |
| 20260506004016 | 52 | 286 | 3.0 | 6.0 | 0.06 | 0.21 | 0.06 | 91 | 1012.0 |
| 20260506003016 | 52 | 286 | 2.0 | 4.0 | 0.06 | 0.21 | 0.06 | 91 | 1012.1 |
| 20260506002036 | 52 | 286 | 4.0 | 8.0 | 0.06 | 0.21 | 0.06 | 91 | 1012.1 |
| 20260506001016 | 52 | 281 | 4.0 | 6.0 | 0.06 | 0.21 | 0.06 | 90 | 1012.2 |
| 20260506000016 | 52 | 281 | 4.0 | 8.0 | 0.06 | 0.21 | 0.06 | 90 | 1012.3 |
| 20260505235016 | 0 | 0.0 | 0.0 | 0.00 | 0.16 | 0.00 | |||
| 20260505234016 | 0 | 0.0 | 0.0 | 0.00 | 0.16 | 0.00 | |||
| 20260505233016 | 0 | 0.0 | 0.0 | 0.00 | 0.16 | 0.00 | |||
| 20260505232137 | 0 | 0.0 | 0.0 | 0.00 | 0.16 | 0.00 | |||
| 20260505231516 | 0 | 0.0 | 0.0 | 0.00 | 0.16 | 0.00 | |||
| 20260505230516 | 0 | 0.0 | 0.0 | 0.00 | 0.16 | 0.00 | |||
| 20260505225515 | 0 | 0.0 | 0.0 | 0.00 | 0.16 | 0.00 | |||
| 20260505224716 | 0 | 0.0 | 0.0 | 0.00 | 0.16 | 0.00 | |||
| 20260505224016 | 0 | 0.0 | 0.0 | 0.00 | 0.16 | 0.00 | |||
| 20260505223017 | 0 | 0.0 | 0.0 | 0.00 | 0.16 | 0.00 | |||
| 20260505222516 | 0 | 0.0 | 0.0 | 0.00 | 0.16 | 0.00 | |||
| 20260505221516 | 0 | 0.0 | 0.0 | 0.00 | 0.16 | 0.00 | |||
| 20260505220516 | 0 | 0.0 | 0.0 | 0.00 | 0.16 | 0.00 | |||
| 20260505215619 | 0 | 0.0 | 0.0 | 0.00 | 0.16 | 0.16 | |||
| 20260505215016 | 0 | 0.0 | 0.0 | 0.00 | 0.16 | 0.16 | |||
| 20260505214016 | 0 | 0.0 | 0.0 | 0.00 | 0.16 | 0.16 | |||
| 20260505213016 | 0 | 0.0 | 0.0 | 0.00 | 0.17 | 0.16 | |||
| 20260505212219 | 0 | 0.0 | 0.0 | 0.00 | 0.17 | 0.16 | |||
| 20260505211516 | 0 | 0.0 | 0.0 | 0.00 | 0.17 | 0.16 | |||
| 20260505210539 | 0 | 0.0 | 0.0 | 0.00 | 0.17 | 0.16 | |||
| 20260505210016 | 0 | 0.0 | 0.0 | 0.00 | 0.17 | 0.16 | |||
| 20260505205017 | 0 | 0.0 | 0.0 | 0.00 | 0.17 | 0.16 | |||
| 20260505204016 | 0 | 0.0 | 0.0 | 0.00 | 0.17 | 0.16 | |||
| 20260505203119 | 0 | 0.0 | 0.0 | 0.00 | 0.17 | 0.16 | |||
| 20260505202516 | 0 | 0.0 | 0.0 | 0.00 | 0.17 | 0.16 | |||
| 20260505201517 | 0 | 0.0 | 0.0 | 0.00 | 0.17 | 0.16 | |||
| 20260505200516 | 0 | 0.0 | 0.0 | 0.00 | 0.17 | 0.16 | |||
| 20260505195739 | 0 | 0.0 | 0.0 | 0.00 | 0.17 | 0.16 | |||
| 20260505195058 | 0 | 0.0 | 0.0 | 0.00 | 0.17 | 0.16 | |||
| 20260505194059 | 0 | 0.0 | 0.0 | 0.00 | 0.17 | 0.16 | |||
| 20260505193537 | 0 | 0.0 | 0.0 | 0.00 | 0.17 | 0.16 | |||
| 20260505192516 | 0 | 0.0 | 0.0 | 0.00 | 0.17 | 0.16 | |||
| 20260505191516 | 0 | 0.0 | 0.0 | 0.00 | 0.17 | 0.16 | |||
| 20260505190644 | 0 | 0.0 | 0.0 | 0.00 | 0.17 | 0.16 | |||
| 20260505190016 | 0 | 0.0 | 0.0 | 0.00 | 0.17 | 0.16 | |||
| 20260505185016 | 0 | 0.0 | 0.0 | 0.00 | 0.17 | 0.16 | |||
| 20260505184016 | 0 | 0.0 | 0.0 | 0.00 | 0.17 | 0.16 | |||
| 20260505183219 | 0 | 0.0 | 0.0 | 0.00 | 0.17 | 0.16 | |||
| 20260505182516 | 0 | 0.0 | 0.0 | 0.00 | 0.17 | 0.16 | |||
| 20260505181539 | 0 | 0.0 | 0.0 | 0.00 | 0.17 | 0.16 | |||
| 20260505181016 | 0 | 0.0 | 0.0 | 0.00 | 0.17 | 0.16 | |||
| 20260505180129 | 0 | 0.0 | 0.0 | 0.00 | 0.17 | 0.16 | |||
| 20260505175016 | 0 | 0.0 | 0.0 | 0.00 | 0.17 | 0.16 | |||
| 20260505174118 | 0 | 0.0 | 0.0 | 0.00 | 0.17 | 0.16 | |||
| 20260505173516 | 0 | 0.0 | 0.0 | 0.00 | 0.17 | 0.16 | |||
| 20260505172516 | 0 | 0.0 | 0.0 | 0.00 | 0.17 | 0.16 | |||
| 20260505171536 | 0 | 0.0 | 0.0 | 0.01 | 0.17 | 0.16 | |||
| 20260505170718 | 0 | 0.0 | 0.0 | 0.02 | 0.17 | 0.16 | |||
| 20260505170016 | 0 | 0.0 | 0.0 | 0.03 | 0.17 | 0.16 | |||
| 20260505165038 | 0 | 0.0 | 0.0 | 0.05 | 0.17 | 0.16 | |||
| 20260505164515 | 0 | 0.0 | 0.0 | 0.05 | 0.17 | 0.16 | |||
| 20260505163536 | 0 | 0.0 | 0.0 | 0.06 | 0.17 | 0.16 | |||
| 20260505163027 | 54 | 285 | 12.0 | 12.0 | 0.10 | 0.17 | 0.16 | 88 | 1012.6 |
| 20260505162530 | 54 | 293 | 12.0 | 12.0 | 0.14 | 0.17 | 0.16 | 88 | 1012.5 |
| 20260505162016 | 54 | 293 | 15.0 | 18.0 | 0.16 | 0.17 | 0.16 | 88 | 1012.3 |
| 20260505161035 | 54 | 286 | 16.0 | 25.0 | 0.14 | 0.48 | 0.14 | 89 | 1012.3 |
| 20260505153016 | 57 | 284 | 27.0 | 35.0 | 0.06 | 0.39 | 0.06 | 84 | 1011.2 |
| 20260505152016 | 60 | 287 | 13.0 | 19.0 | 0.00 | 0.34 | 0.00 | 79 | 1010.7 |
| 20260505151016 | 61 | 281 | 14.0 | 21.0 | 0.00 | 0.34 | 0.00 | 78 | 1010.4 |